Location: Montclair
(37.8322°N, 122.2092°W)
Time: 22:44:22
(UTC+00:00)

Cosmos 1867 - Pass Details

Date: 11 December 2024
Orbit: 773 x 801 km, 65.0° (Epoch: 19 January)

Event Time Altitude Azimuth Distance (km) Brightness Sun altitude
Exits shadow 14:08:47 - 246° (WSW) 2,566 5.8 -12.7°
Reaches altitude 10° 14:09:26 10° 250° (WSW) 2,356 5.6 -12.6°
Maximum altitude 14:14:08 30° 310° (NW) 1,406 4.4 -11.7°
Drops below altitude 10° 14:18:55 10° 11° (N) 2,378 5.9 -10.8°
Sets 14:21:39 0° 22° (NNE) 3,313 6.8 -10.3°
